Tracking 30970 objects as of 3-Jul-2025
HD Live streaming from Space Station
objects crossing your sky now

SL-8 DEB

Track SL-8 DEB now!
10-day predictions


NORAD ID: 21959
Int'l Code: 1991-009CH
Perigee: 1,502.1 km
Apogee: 1,706.7 km
Inclination: 74.0 °
Period: 118.1 minutes
Semi major axis: 7975 km
RCS: 0.0331 m2 (small)
Launch date: February 12, 1991
Source: Commonwealth of Independent States (former USSR) (CIS)
Launch site: PLESETSK MISSILE AND SPACE COMPLEX (PKMTR)

Note: This is SATELLITE DEBRIS
Your satellite tracking list
PLATFORM-1
Track 1 satellite(s)




NASA's NSSDC Master Catalog

Two Line Element Set (TLE):
1 21959U 91009CH  25183.93672662  .00000072  00000-0  83326-3 0  9999
2 21959  73.9682 251.4927 0128306 225.3100 313.8485 12.18913604525858
Source of the keplerian elements: AFSPC